When you browse on this site, cookies collect data to enhance your experience and personalize the content and advertising you see.
Visit our Privacy Policy to learn more. By continuing to use the site, you agree to this use of cookies and data.
  • In Romania
  • List of Countries
  • For 7 days
  • Water Temperature
  • Satellite Maps
  • Weather Map
  • Weather Widgets
  • user-avatar
    Login

    Hourly Weather Djelfa

    Today, 16 June, Sunday

    Time Temperature Precipitation Wind Pressure Humidity
    00:00 +22°C° 0 mm 3 mps 666 mmHg 55%
    01:00 +21°C° 0 mm 2 mps 666 mmHg 57%
    02:00 +20°C° 0 mm 2 mps 665 mmHg 59%
    03:00 +20°C° 0 mm 2 mps 665 mmHg 62%
    04:00 +20°C° 0 mm 2 mps 665 mmHg 59%
    05:00 +21°C° 0 mm 3 mps 666 mmHg 56%
    06:00 +22°C° 0 mm 4 mps 666 mmHg 52%
    07:00 +26°C° 0 mm 5 mps 667 mmHg 42%
    08:00 +28°C° 0 mm 6 mps 667 mmHg 31%
    09:00 +32°C° 0 mm 7 mps 668 mmHg 21%
    10:00 +33°C° 0 mm 7 mps 668 mmHg 18%
    11:00 +34°C° 0 mm 7 mps 667 mmHg 16%
    12:00 +35°C° 0 mm 7 mps 667 mmHg 14%
    13:00 +35°C° 0 mm 7 mps 667 mmHg 13%
    14:00 +36°C° 0 mm 6 mps 666 mmHg 11%
    15:00 +36°C° 0 mm 5 mps 666 mmHg 10%
    16:00 +36°C° 0 mm 5 mps 665 mmHg 9%
    17:00 +36°C° 0 mm 5 mps 665 mmHg 8%
    18:00 +35°C° 0 mm 5 mps 665 mmHg 8%
    19:00 +34°C° 0 mm 7 mps 665 mmHg 12%
    20:00 +32°C° 0 mm 8 mps 665 mmHg 17%
    21:00 +29°C° 0 mm 10 mps 665 mmHg 22%
    22:00 +28°C° 0 mm 8 mps 665 mmHg 24%
    23:00 +27°C° 0 mm 7 mps 665 mmHg 27%

    Tomorrow, 17 June, Monday

    Time Temperature Precipitation Wind Pressure Humidity
    00:00 +26°C° 0 mm 6 mps 664 mmHg 29%
    01:00 +25°C° 0 mm 4 mps 664 mmHg 37%
    02:00 +22°C° 0 mm 3 mps 664 mmHg 45%
    03:00 +20°C° 0 mm 2 mps 663 mmHg 52%
    04:00 +20°C° 0 mm 2 mps 664 mmHg 54%
    05:00 +20°C° 0 mm 2 mps 664 mmHg 55%
    06:00 +20°C° 0 mm 3 mps 664 mmHg 57%
    07:00 +22°C° 0 mm 3 mps 665 mmHg 49%
    08:00 +25°C° 0 mm 3 mps 665 mmHg 40%
    09:00 +27°C° 0 mm 4 mps 666 mmHg 32%
    10:00 +28°C° 0 mm 4 mps 666 mmHg 28%
    11:00 +30°C° 0 mm 3 mps 666 mmHg 25%
    12:00 +31°C° 0 mm 3 mps 666 mmHg 21%
    13:00 +33°C° 0 mm 3 mps 666 mmHg 19%
    14:00 +34°C° 0 mm 3 mps 665 mmHg 17%
    15:00 +34°C° 0 mm 4 mps 665 mmHg 15%
    16:00 +33°C° 0 mm 5 mps 665 mmHg 22%
    17:00 +30°C° 0 mm 7 mps 665 mmHg 29%
    18:00 +29°C° 0 mm 9 mps 664 mmHg 36%
    19:00 +27°C° 0 mm 8 mps 665 mmHg 41%
    20:00 +26°C° 0 mm 6 mps 665 mmHg 46%
    21:00 +23°C° 0 mm 5 mps 665 mmHg 51%
    22:00 +23°C° 0 mm 4 mps 665 mmHg 52%
    23:00 +22°C° 0 mm 3 mps 665 mmHg 54%

    Day after tomorrow, 18 June, Tuesday

    Time Temperature Precipitation Wind Pressure Humidity
    00:00 +21°C° 0 mm 2 mps 665 mmHg 56%
    01:00 +22°C° 0 mm 1 mps 665 mmHg 58%
    02:00 +21°C° 0 mm 1 mps 665 mmHg 59%
    03:00 +21°C° 0 mm 1 mps 664 mmHg 61%
    04:00 +22°C° 0 mm 1 mps 665 mmHg 56%
    05:00 +22°C° 0 mm 1 mps 665 mmHg 50%
    06:00 +23°C° 0 mm 1 mps 666 mmHg 45%
    07:00 +25°C° 0 mm 2 mps 666 mmHg 39%
    08:00 +27°C° 0 mm 2 mps 666 mmHg 33%
    09:00 +28°C° 0 mm 3 mps 667 mmHg 27%
    10:00 +30°C° 0 mm 3 mps 667 mmHg 24%
    11:00 +31°C° 0 mm 3 mps 667 mmHg 20%
    12:00 +33°C° 0 mm 3 mps 667 mmHg 17%
    13:00 +34°C° 0 mm 3 mps 667 mmHg 16%
    14:00 +35°C° 0 mm 3 mps 667 mmHg 14%
    15:00 +36°C° 0 mm 3 mps 666 mmHg 13%
    16:00 +35°C° 0 mm 4 mps 666 mmHg 13%
    17:00 +35°C° 0 mm 4 mps 666 mmHg 13%
    18:00 +35°C° 0 mm 4 mps 666 mmHg 13%
    19:00 +33°C° 0 mm 3 mps 666 mmHg 15%
    20:00 +30°C° 0 mm 2 mps 666 mmHg 18%
    21:00 +28°C° 0 mm 2 mps 666 mmHg 20%
    22:00 +27°C° 0 mm 3 mps 666 mmHg 22%
    23:00 +27°C° 0 mm 4 mps 666 mmHg 24%

    19 June, Wednesday

    Time Temperature Precipitation Wind Pressure Humidity
    00:00 +26°C° 0 mm 6 mps 666 mmHg 26%
    01:00 +26°C° 0 mm 6 mps 666 mmHg 27%
    02:00 +25°C° 0 mm 5 mps 666 mmHg 28%
    03:00 +25°C° 0 mm 5 mps 665 mmHg 29%
    04:00 +25°C° 0 mm 5 mps 666 mmHg 28%
    05:00 +25°C° 0 mm 5 mps 666 mmHg 28%
    06:00 +26°C° 0 mm 5 mps 667 mmHg 27%
    07:00 +28°C° 0 mm 6 mps 667 mmHg 24%
    08:00 +30°C° 0 mm 6 mps 668 mmHg 21%
    09:00 +33°C° 0 mm 7 mps 668 mmHg 18%
    10:00 +34°C° 0 mm 7 mps 668 mmHg 17%
    11:00 +35°C° 0 mm 7 mps 668 mmHg 16%
    12:00 +36°C° 0 mm 7 mps 668 mmHg 14%
    13:00 +38°C° 0 mm 7 mps 668 mmHg 14%
    14:00 +38°C° 0 mm 6 mps 667 mmHg 13%
    15:00 +39°C° 0 mm 6 mps 667 mmHg 12%
    16:00 +38°C° 0 mm 7 mps 667 mmHg 13%
    17:00 +38°C° 0 mm 7 mps 667 mmHg 13%
    18:00 +36°C° 0 mm 7 mps 667 mmHg 14%
    19:00 +34°C° 0 mm 7 mps 667 mmHg 15%
    20:00 +33°C° 0 mm 7 mps 667 mmHg 17%
    21:00 +30°C° 0 mm 7 mps 667 mmHg 18%
    22:00 +30°C° 0 mm 7 mps 667 mmHg 19%
    23:00 +29°C° 0 mm 7 mps 666 mmHg 20%

    20 June, Thursday

    Time Temperature Precipitation Wind Pressure Humidity
    00:00 +28°C° 0 mm 7 mps 666 mmHg 21%
    01:00 +28°C° 0 mm 6 mps 666 mmHg 21%
    02:00 +27°C° 0 mm 6 mps 665 mmHg 22%
    03:00 +27°C° 0 mm 5 mps 665 mmHg 23%
    04:00 +27°C° 0 mm 5 mps 666 mmHg 23%
    05:00 +27°C° 0 mm 5 mps 666 mmHg 23%
    06:00 +28°C° 0 mm 5 mps 666 mmHg 23%
    07:00 +30°C° 0 mm 6 mps 667 mmHg 20%
    08:00 +33°C° 0 mm 7 mps 667 mmHg 17%
    09:00 +35°C° 0 mm 7 mps 668 mmHg 15%
    10:00 +37°C° 0 mm 8 mps 668 mmHg 13%
    11:00 +38°C° 0 mm 8 mps 668 mmHg 12%
    12:00 +39°C° 0 mm 9 mps 668 mmHg 11%
    13:00 +39°C° 0 mm 9 mps 667 mmHg 10%
    14:00 +39°C° 0 mm 9 mps 666 mmHg 10%
    15:00 +39°C° 0 mm 9 mps 666 mmHg 10%
    16:00 +39°C° 0 mm 8 mps 666 mmHg 10%
    17:00 +38°C° 0 mm 8 mps 666 mmHg 10%
    18:00 +36°C° 0 mm 7 mps 666 mmHg 11%
    19:00 +35°C° 0 mm 7 mps 666 mmHg 11%
    20:00 +34°C° 0 mm 6 mps 665 mmHg 12%
    21:00 +32°C° 0 mm 5 mps 665 mmHg 13%
    22:00 +30°C° 0 mm 5 mps 665 mmHg 14%
    23:00 +30°C° 0 mm 5 mps 665 mmHg 14%

    21 June, Friday

    Time Temperature Precipitation Wind Pressure Humidity
    00:00 +29°C° 0 mm 5 mps 665 mmHg 15%
    01:00 +28°C° 0 mm 5 mps 664 mmHg 16%
    02:00 +28°C° 0 mm 5 mps 664 mmHg 17%
    03:00 +27°C° 0 mm 5 mps 664 mmHg 17%
    04:00 +27°C° 0 mm 5 mps 664 mmHg 18%
    05:00 +27°C° 0 mm 5 mps 665 mmHg 19%
    06:00 +27°C° 0 mm 4 mps 665 mmHg 20%
    07:00 +30°C° 0 mm 7 mps 666 mmHg 17%
    08:00 +33°C° 0 mm 9 mps 666 mmHg 14%
    09:00 +37°C° 0 mm 12 mps 667 mmHg 11%
    10:00 +38°C° 0 mm 12 mps 667 mmHg 11%
    11:00 +39°C° 0 mm 11 mps 667 mmHg 10%
    12:00 +41°C° 0 mm 11 mps 666 mmHg 9%
    13:00 +41°C° 0 mm 11 mps 666 mmHg 8%
    14:00 +42°C° 0 mm 11 mps 665 mmHg 8%
    15:00 +42°C° 0 mm 11 mps 665 mmHg 8%
    16:00 +40°C° 0 mm 10 mps 665 mmHg 9%
    17:00 +39°C° 0 mm 10 mps 665 mmHg 9%
    18:00 +38°C° 0 mm 9 mps 665 mmHg 10%
    19:00 +34°C° 0 mm 7 mps 664 mmHg 21%
    20:00 +29°C° 0 mm 6 mps 664 mmHg 32%
    21:00 +26°C° 0 mm 4 mps 664 mmHg 42%
    22:00 +23°C° 0 mm 4 mps 664 mmHg 46%
    23:00 +22°C° 0 mm 4 mps 663 mmHg 50%
    Show more